Powrót do katalogu

CZ-6A DEB

AktywnySSO
NORAD 54928·DEBRIS·🇨🇳 China

Wystrzelony Nov 11, 2022 z Taiyuan Satellite Launch Center

Loading…

Następne Przeloty (najbliższe 24 godziny)

TLE

ŚwieżeSource: Space-Track

Epoka: Sep 14, 2026, 00:47 UTC

1 54928U 22151RR  26257.03302742  .00001553  00000-0  48352-3 0  9991
2 54928  98.6160 288.9223 0059680 104.2119 256.5709 14.41331733200646

Śledź CZ-6A DEB w czasie rzeczywistym z AllMySat

Download on the App Store